Location: Allaines
(49.9632°N, 2.9458°E)
Time: 02:24:46
(UTC+00:00)

Cosmos 2219 Rocket - Pass Details

Date: 09 April 2020
Orbit: 829 x 845 km, 71.0° (Epoch: 03 June)

Event Time Altitude Azimuth Distance (km) Brightness Sun altitude
Rises 22:24:30 0° 333° (NNW) 3,391 6.6 -29.1°
Reaches altitude 10° 22:27:49 10° 353° (N) 2,451 5.5 -29.3°
Maximum altitude 22:31:31 18° 34° (NE) 1,959 4.4 -29.6°
Enters shadow 22:34:07 13° 66° (ENE) 2,208 4.4 -29.7°
